[[{"header":{"parameterUnit":"m.s-1","parameterCategory":1,"la1":30.2992,"la2":30.254,"lo1":-89.0895,"lo2":-89.0443,"dy":0.0025,"dx":0.0025,"nx":19,"ny":19,"refTime":"2026-04-07T03:00:00:Z","depth":0,"parameterNumber":2,"parameterNumberName":"U-component_of_WINDS"},"data":[0,0,0,-2.4574,-2.4579,-2.4763,-2.4764,-2.5022,-2.5024,0,0,0,0,0,0,0,0,0,0,0,-2.4532,-2.4534,-2.4574,-2.4579,-2.4763,-2.4764,-2.5021,-2.5024,0,0,0,0,0,0,0,0,0,0,0,-2.4531,-2.4533,-2.4536,-2.458,-2.4763,-2.4764,-2.5021,-2.4874,0,0,0,0,0,0,0,0,0,0,-2.4692,-2.4664,-2.4533,-2.4536,-2.4581,-2.4763,-2.4764,-2.4867,-2.4883,-2.4947,0,-2.5006,0,-2.5019,-2.5043,-2.5044,0,0,0,-2.4571,-2.465,-2.4688,-2.4537,-2.4583,-2.4762,-2.4678,-2.4876,-2.4895,-2.497,-2.5009,-2.5018,-2.5023,-2.5044,-2.5046,-2.5441,-2.5443,0,0,-2.4561,-2.4572,-2.4676,-2.4701,-2.4672,-2.4672,-2.4683,-2.4887,-2.4932,-2.501,-2.5024,-2.5028,-2.5046,-2.5048,-2.5439,-2.5441,0,0,0,-2.4537,-2.4565,-2.4598,-2.4691,-2.4722,-2.4677,-2.4691,-2.4923,-2.4932,-2.5027,-2.5031,-2.5048,-2.5051,-2.5436,-2.544,-2.5564,0,0,0,-2.453,-2.4551,-2.4594,-2.4603,-2.4719,-2.4825,-2.4723,-2.4918,-2.4941,-2.5029,-2.5048,-2.5054,-2.5434,-2.5438,-2.5555,-2.5623,0,0,0,-2.4516,-2.455,-2.458,-2.4604,-2.4683,-2.4821,-2.4842,-2.4923,-2.4944,-2.5044,-2.5055,-2.5432,-2.5437,-2.5548,-2.561,-2.5734,0,0,0,-2.4504,-2.4687,-2.4582,-2.4788,-2.4681,-2.4894,-2.4841,-2.4999,-2.5099,-2.5049,-2.5434,-2.5439,-2.5545,-2.5602,-2.5725,-2.5844,-2.5892,0,0,-2.4742,-2.4716,-2.4836,-2.4748,-2.4983,-2.4865,-2.512,-2.5201,-2.5199,-2.5361,-2.537,-2.5558,-2.5609,-2.5732,-2.6152,-2.6191,0,0,0,-2.4916,-2.5003,-2.5063,-2.5158,-2.5223,-2.5286,-2.5326,-2.5356,-2.5492,-2.5284,-2.5633,-2.5663,-2.5735,-2.5791,-2.5824,-2.5887,-2.5464,-2.5463,-2.5463,-2.5273,-2.526,-2.546,-2.547,-2.5563,-2.5602,-2.5678,-2.5725,-2.5685,-2.5768,-2.5819,-2.6074,-2.6141,-2.6165,-2.6231,-2.5875,-2.5875,-2.5876,-2.5876,-2.5624,-2.5748,-2.5689,-2.5862,-2.5849,-2.5994,-2.6039,-2.6006,-2.6142,-2.6035,-2.6098,-2.5988,-2.6208,-2.6265,-2.5885,-2.5883,-2.5882,-2.5881,-2.5881,-2.5862,-2.5919,-2.5951,-2.6088,-2.6195,-2.6198,-2.6331,-2.6312,-2.6296,-2.6357,-2.6411,-2.6409,-2.6409,-2.6382,-2.6383,-2.6384,-2.6385,-2.6386,-2.6386,-2.6098,-2.6129,-2.6243,-2.6327,-2.6386,-2.6462,-2.6502,-2.6561,-2.6622,-2.6598,-2.6599,-2.6555,-2.6229,-2.6152,-2.64,-2.6398,-2.6396,-2.6395,-2.6394,-2.647,-2.6382,-2.6559,-2.6618,-2.6716,-2.6826,-2.6797,-2.6919,-2.6964,-2.7031,-2.6971,-2.6732,-2.6706,-2.668,-2.6616,-2.697,-2.697,-2.697,-2.697,-2.6675,-2.6657,-2.6835,-2.6931,-2.7023,-2.7016,-2.7219,-2.7252,-2.7272,-2.73,-2.7245,-2.7156,-2.7129,-2.7119,-2.7083,-2.7024,-2.7474,-2.7474,-2.7475,-2.6905,-2.6896,-2.7072,-2.7089,-2.7163,-2.7229,-2.742,-2.7536,-2.754,-2.7495,-2.7323,-2.7302,-2.7158,-2.7111,-2.7069,-2.7013,-2.6903,0,0]},{"header":{"parameterUnit":"m.s-1","parameterCategory":1,"la1":30.2992,"la2":30.254,"lo1":-89.0895,"lo2":-89.0443,"dy":0.0025,"dx":0.0025,"nx":19,"ny":19,"refTime":"2026-04-07T03:00:00:Z","depth":0,"parameterNumber":3,"parameterNumberName":"V-component_of_WINDS"},"data":[0,0,0,-5.7885,-5.7888,-5.8015,-5.8015,-5.8202,-5.8204,0,0,0,0,0,0,0,0,0,0,0,-5.7865,-5.7866,-5.7884,-5.7888,-5.8015,-5.8015,-5.8202,-5.8204,0,0,0,0,0,0,0,0,0,0,0,-5.7864,-5.7866,-5.7868,-5.7889,-5.8015,-5.8015,-5.8201,-5.8096,0,0,0,0,0,0,0,0,0,0,-5.7968,-5.7968,-5.7865,-5.7868,-5.789,-5.8015,-5.8015,-5.8091,-5.8103,-5.8156,0,-5.821,0,-5.821,-5.8218,-5.8219,0,0,0,-5.7874,-5.7958,-5.7976,-5.7869,-5.7891,-5.8015,-5.7954,-5.8097,-5.8111,-5.8172,-5.8212,-5.8218,-5.8213,-5.822,-5.8221,-5.8577,-5.858,0,0,-5.7867,-5.7896,-5.7967,-5.7986,-5.7971,-5.795,-5.7958,-5.8105,-5.815,-5.8213,-5.8222,-5.8216,-5.8221,-5.8223,-5.8575,-5.8578,0,0,0,-5.7857,-5.7892,-5.7906,-5.7979,-5.8,-5.7954,-5.7963,-5.8143,-5.8146,-5.8224,-5.8219,-5.8222,-5.8225,-5.8573,-5.8576,-5.872,0,0,0,-5.7852,-5.7886,-5.7904,-5.7923,-5.7998,-5.8074,-5.7999,-5.8136,-5.8151,-5.8218,-5.8222,-5.8227,-5.857,-5.8575,-5.871,-5.8783,0,0,0,-5.785,-5.7885,-5.791,-5.7924,-5.798,-5.8071,-5.8081,-5.8138,-5.8149,-5.8219,-5.8227,-5.8568,-5.8574,-5.8702,-5.8769,-5.8886,0,0,0,-5.7856,-5.8035,-5.7913,-5.8109,-5.798,-5.8159,-5.808,-5.8212,-5.829,-5.8223,-5.857,-5.8576,-5.8699,-5.876,-5.8877,-5.899,-5.904,0,0,-5.8097,-5.8065,-5.8178,-5.8072,-5.8282,-5.8138,-5.8367,-5.8409,-5.8388,-5.8515,-5.8523,-5.8713,-5.8768,-5.8884,-5.9307,-5.9347,0,0,0,-5.8264,-5.8346,-5.8395,-5.8471,-5.8509,-5.8547,-5.8551,-5.8566,-5.8673,-5.846,-5.8786,-5.8817,-5.8884,-5.8937,-5.8971,-5.9026,-5.8601,-5.8601,-5.86,-5.8647,-5.8612,-5.8796,-5.8776,-5.8851,-5.8853,-5.8909,-5.893,-5.8871,-5.8949,-5.8987,-5.9248,-5.9311,-5.9336,-5.9394,-5.9042,-5.9043,-5.9044,-5.9044,-5.8998,-5.9108,-5.9026,-5.9176,-5.9136,-5.926,-5.9269,-5.9223,-5.9331,-5.9217,-5.9274,-5.9153,-5.9381,-5.943,-5.9054,-5.9053,-5.9051,-5.905,-5.9049,-5.9246,-5.9293,-5.9309,-5.9414,-5.9499,-5.947,-5.9579,-5.9538,-5.95,-5.9556,-5.9592,-5.9589,-5.9582,-5.9576,-5.9577,-5.9578,-5.9578,-5.9579,-5.958,-5.9498,-5.9511,-5.9609,-5.9663,-5.9706,-5.9757,-5.9759,-5.98,-5.9833,-5.9795,-5.9795,-5.9729,-5.941,-5.9332,-5.9594,-5.9591,-5.9589,-5.9588,-5.9587,-5.9868,-5.9778,-5.9929,-5.9972,-6.0031,-6.0118,-6.0063,-6.0148,-6.0175,-6.0229,-6.015,-5.9921,-5.9885,-5.9857,-5.9792,-6.0157,-6.0157,-6.0158,-6.0158,-6.0079,-6.0056,-6.0201,-6.0272,-6.0337,-6.0303,-6.0472,-6.0475,-6.0463,-6.0477,-6.0417,-6.0327,-6.0301,-6.0279,-6.0243,-6.0181,-6.0638,-6.0638,-6.0639,-6.0304,-6.0286,-6.044,-6.0429,-6.0471,-6.0508,-6.0666,-6.0749,-6.0716,-6.0657,-6.0487,-6.0467,-6.032,-6.0274,-6.0213,-6.0158,-6.0044,0,0]}]]